Location: Abraham Lincoln Continuation High School
(33.9711°N, 117.3662°W)
Time: 01:12:30
(UTC+00:00)

Iridium 4 Rocket - Pass Details

Date: 18 January 2021
Orbit: 583 x 906 km, 86.9° (Epoch: 03 March)

Event Time Altitude Azimuth Distance (km) Brightness Sun altitude
Rises 01:51:53 0° 21° (NNE) 3,475 6.5 -9.7°
Enters shadow 01:55:27 - 44° (NE) 2,548 5.7 -10.4°
Exits shadow 02:01:38 - 110° (ESE) 2,499 5.7 -11.7°
Sets 02:04:34 0° 130° (SE) 3,231 6.4 -12.2°
